Volver al catálogo

FENGYUN 1C DEB

ActivoPO
NORAD 32176·DEBRIS·🇨🇳 China

Lanzado May 10, 1999 desde Taiyuan Satellite Launch Center

Loading…

Próximos Pases (próximas 24 horas)

TLE

ActualizadoSource: Space-Track

Época: Sep 13, 2026, 10:57 UTC

1 32176U 99025CTW 26256.45683869  .00020153  00000-0  17243-2 0  9994
2 32176  99.3796 344.1174 0023329 244.3464 115.5343 14.97446039655740

Sigue FENGYUN 1C DEB en tiempo real con AllMySat

Download on the App Store